• MPC Preparation (Info)

  • MPEC 2016-O220: 2014 KZ101

    The following Minor Planet Electronic Circular may be linked-to from your own Web pages, but must not otherwise be redistributed electronically.

    A form allowing access to any MPEC is at the bottom of this page.


    Read MPEC 2016-O219 Read MPEC 2016-O221


    M.P.E.C. 2016-O220                               Issued 2016 July 17, 17:40 UT
    
         The Minor Planet Electronic Circulars contain information on unusual
             minor planets and routine data on comets.  They are published
        on behalf of Division F of the International Astronomical Union by the
              Minor Planet Center, Smithsonian Astrophysical Observatory,
                              Cambridge, MA 02138, U.S.A.
    
                 Prepared using the Tamkin Foundation Computer Network
    
                                  MPC@CFA.HARVARD.EDU
                URL https://www.minorplanetcenter.net/    ISSN 1523-6714
    
                                      2014 KZ101
    
    Observations:
         K14KA1Z  C2012 06 13.33522 16 14 10.181-01 54 20.03         21.8 wLEO220F51
         K14KA1Z  C2012 06 13.34998 16 14 10.108-01 54 20.12         21.5 wLEO220F51
         K14KA1Z  C2012 06 13.36472 16 14 10.032-01 54 20.03         21.6 wLEO220F51
         K14KA1Z  C2013 02 14.62789 16 29 07.786-03 07 13.79         22.0 wLEO220F51
         K14KA1Z  C2013 02 14.63251 16 29 07.804-03 07 13.72         21.7 wLEO220F51
         K14KA1Z  C2013 02 14.63711 16 29 07.822-03 07 13.63         21.9 wLEO220F51
         K14KA1Z  C2013 02 14.64171 16 29 07.829-03 07 13.63         21.9 wLEO220F51
         K14KA1Z  C2013 05 15.51497 16 26 37.626-02 20 45.95         21.4 wLEO220F51
         K14KA1Z  C2013 05 15.52823 16 26 37.559-02 20 45.75         21.5 wLEO220F51
         K14KA1Z  C2013 05 15.54151 16 26 37.489-02 20 45.48         21.7 wLEO220F51
         K14KA1Z  C2013 06 09.36924 16 24 24.127-02 14 59.15         21.6 wLEO220F51
         K14KA1Z  C2013 06 09.38316 16 24 24.054-02 14 58.90         21.5 wLEO220F51
         K14KA1Z  C2013 06 09.39710 16 24 23.983-02 14 58.77         21.5 wLEO220F51
         K14KA1Z  C2013 06 18.34125 16 23 37.745-02 14 28.09         21.2 iLEO220F51
         K14KA1Z  C2013 06 18.35233 16 23 37.693-02 14 28.07         21.4 iLEO220F51
         K14KA1Z  C2013 06 18.36341 16 23 37.626-02 14 28.02         21.6 rLEO220F51
         K14KA1Z  C2013 06 18.37358 16 23 37.592-02 14 28.00         21.7 rLEO220F51
         K14KA1Z  C2013 07 02.32782 16 22 32.592-02 15 24.26         21.7 wLEO220F51
         K14KA1Z  C2013 07 02.34107 16 22 32.533-02 15 24.39         21.7 wLEO220F51
         K14KA1Z  C2013 07 02.35434 16 22 32.477-02 15 24.56         21.6 wLEO220F51
         K14KA1Z  C2013 07 02.36758 16 22 32.421-02 15 24.65         21.5 wLEO220F51
         K14KA1Z* C2014 05 23.46817 16 35 48.948-02 38 20.46         21.5 wLEO220F51
         K14KA1Z  C2014 05 23.47978 16 35 48.880-02 38 20.36         21.7 wLEO220F51
         K14KA1Z  C2014 05 23.49141 16 35 48.822-02 38 20.09         21.5 wLEO220F51
         K14KA1Z  C2014 05 23.50303 16 35 48.756-02 38 19.83         21.4 wLEO220F51
         K14KA1Z  C2014 06 02.36345 16 34 55.328-02 36 04.14         21.6 wLEO220F51
         K14KA1Z  C2014 06 02.37467 16 34 55.266-02 36 03.96         21.5 wLEO220F51
         K14KA1Z  C2014 06 02.38592 16 34 55.208-02 36 03.97         21.6 wLEO220F51
         K14KA1Z  C2014 06 02.39720 16 34 55.147-02 36 03.72         21.5 wLEO220F51
         K14KA1Z  C2014 06 22.38951 16 33 09.872-02 34 32.47         21.8 wLEO220F51
         K14KA1Z  C2014 06 22.40105 16 33 09.825-02 34 32.60         21.8 wLEO220F51
         K14KA1Z  C2014 06 22.42410 16 33 09.746-02 34 32.54         21.8 wLEO220F51
         K14KA1Z  C2014 06 30.37545 16 32 31.817-02 35 07.43         21.8 wLEO220F51
         K14KA1Z  C2014 06 30.38684 16 32 31.771-02 35 07.65         21.7 wLEO220F51
         K14KA1Z  C2014 06 30.39823 16 32 31.718-02 35 07.75         21.6 wLEO220F51
         K14KA1Z  C2014 06 30.40957 16 32 31.666-02 35 07.80         21.6 wLEO220F51
         K14KA1Z  C2014 07 29.31467 16 30 51.438-02 42 43.83         21.8 wLEO220F51
         K14KA1Z  C2014 07 29.32674 16 30 51.397-02 42 44.08         21.9 wLEO220F51
         K14KA1Z  C2014 07 29.33883 16 30 51.375-02 42 44.39         21.8 wLEO220F51
         K14KA1Z  C2014 07 29.35089 16 30 51.356-02 42 44.74         21.8 wLEO220F51
         K14KA1Z  C2014 07 30.33820 16 30 49.239-02 43 08.64         21.8 wLEO220F51
         K14KA1Z  C2014 07 30.35015 16 30 49.206-02 43 08.86         21.6 wLEO220F51
         K14KA1Z  C2014 07 30.36210 16 30 49.180-02 43 09.15         21.8 wLEO220F51
         K14KA1Z  C2014 07 30.37405 16 30 49.156-02 43 09.40         21.6 wLEO220F51
         K14KA1Z  C2014 08 17.26111 16 30 28.827-02 51 41.98         22.1 wLEO220F51
         K14KA1Z  C2014 08 17.27322 16 30 28.808-02 51 42.65         22.2 wLEO220F51
         K14KA1Z  C2014 08 17.28529 16 30 28.794-02 51 42.67         21.9 wLEO220F51
         K14KA1Z  C2014 08 18.25845 16 30 28.716-02 52 14.50         21.8 wLEO220F51
         K14KA1Z  C2014 08 18.28269 16 30 28.729-02 52 15.20         21.9 wLEO220F51
         K14KA1Z  C2014 08 18.29473 16 30 28.716-02 52 15.65         22.0 wLEO220F51
         K14KA1Z  C2014 08 19.25679 16 30 28.738-02 52 47.35         21.7 wLEO220F51
         K14KA1Z  C2014 08 19.25745 16 30 28.737-02 52 47.39         21.9 wLEO220F51
         K14KA1Z  C2014 08 19.26877 16 30 28.730-02 52 47.67         21.6 wLEO220F51
         K14KA1Z  C2014 08 19.26943 16 30 28.745-02 52 47.63         21.9 wLEO220F51
         K14KA1Z  C2014 08 19.28079 16 30 28.731-02 52 48.13         21.8 wLEO220F51
         K14KA1Z  C2014 08 19.28145 16 30 28.721-02 52 48.04         22.0 wLEO220F51
         K14KA1Z  C2014 08 19.29281 16 30 28.733-02 52 48.51         21.8 wLEO220F51
         K14KA1Z  C2014 08 19.29347 16 30 28.739-02 52 48.54         21.7 wLEO220F51
         K14KA1Z  C2015 05 19.43479 16 46 02.554-02 59 14.80         21.8 wLEO220F51
         K14KA1Z  C2015 05 19.44546 16 46 02.487-02 59 14.55         21.7 wLEO220F51
         K14KA1Z  C2015 05 19.45612 16 46 02.440-02 59 14.43         21.7 wLEO220F51
         K14KA1Z  C2015 05 19.46683 16 46 02.401-02 59 14.10         21.7 wLEO220F51
         K14KA1Z  C2015 06 07.43421 16 44 20.397-02 55 01.41         21.3 iLEO220F51
         K14KA1Z  C2015 06 07.44582 16 44 20.332-02 55 01.44         21.4 iLEO220F51
         K14KA1Z  C2015 06 07.45743 16 44 20.288-02 55 01.13         21.1 iLEO220F51
         K14KA1Z  C2015 06 07.46905 16 44 20.211-02 55 01.10         21.3 iLEO220F51
         K14KA1Z  C2015 07 06.29403 16 41 55.414-02 55 37.70         21.6 wLEO220F51
         K14KA1Z  C2015 07 06.31486 16 41 55.319-02 55 37.94         21.6 wLEO220F51
         K14KA1Z  C2015 07 06.32618 16 41 55.269-02 55 37.96         21.5 wLEO220F51
         K14KA1Z  C2015 07 07.27497 16 41 51.184-02 55 47.96         21.8 wLEO220F51
         K14KA1Z  C2015 07 07.28564 16 41 51.131-02 55 48.13         21.7 wLEO220F51
         K14KA1Z  C2015 07 07.29633 16 41 51.085-02 55 48.17         21.7 wLEO220F51
         K14KA1Z  C2015 07 07.30703 16 41 51.039-02 55 48.37         21.6 wLEO220F51
    
    Observer details:
    F51 Pan-STARRS 1, Haleakala.  Observers B. Gibson, T. Goggia, N. Primak,
        A. Schultz, M. Willman.  Measurers K. Chambers, S. Chastel, Y.-T. Chen,
        L. Denneau, H. Flewelling, M. Holman, M. Huber, R. Jedicke, M. Lackner,
        E. Lilly, H.-W. Lin, E. Magnier, M. Micheli, M. Payne, P. Veres,
        R. Wainscoat, C. Waters, R. Weryk.  1.8-m Ritchey-Chretien + CCD.
    
    Orbital elements:
    2014 KZ101
    Epoch 2016 July 31.0 TT = JDT 2457600.5                 MPC
    M   1.08065              (2000.0)            P               Q
    n   0.00070839     Peri.   81.84950     -0.43924301     +0.89231939
    a 124.6293685      Node   161.01069     -0.89729344     -0.43009819
    e   0.7300847      Incl.   18.65363     -0.04393245     -0.13704615
    P  1390            H    6.2           G   0.15           U   1
    Residuals in seconds of arc
    120613 F51  0.1-  0.1+    140602 F51  0.1-  0.0     140819 F51  0.1+  0.0
    120613 F51  0.0   0.0     140602 F51  0.1-  0.0     140819 F51  0.0   0.0
    120613 F51  0.0   0.0     140602 F51  0.1-  0.1-    140819 F51  0.1-  0.1+
    130214 F51  0.2-  0.0     140602 F51  0.0   0.0     140819 F51  0.2+  0.1+
    130214 F51  0.1-  0.1-    140622 F51  0.1-  0.1+    140819 F51  0.0   0.0
    130214 F51  0.1-  0.1-    140622 F51  0.1+  0.1-    140819 F51  0.2-  0.1+
    130214 F51  0.2-  0.2-    140622 F51  0.6+  0.0     140819 F51  0.0   0.0
    130515 F51  0.1+  0.1+    140630 F51  0.1-  0.2+    140819 F51  0.1+  0.0
    130515 F51  0.1+  0.0     140630 F51  0.0   0.0     150519 F51  0.0   0.0
    130515 F51  0.2+  0.0     140630 F51  0.0   0.0     150519 F51  0.2-  0.1+
    130609 F51  0.0   0.1-    140630 F51  0.0   0.0     150519 F51  0.0   0.0
    130609 F51  0.0   0.1+    140729 F51  0.1+  0.0     150519 F51  0.2+  0.2+
    130609 F51  0.1+  0.1+    140729 F51  0.1-  0.0     150607 F51  0.1-  0.1-
    130618 F51  0.0   0.1-    140729 F51  0.0   0.0     150607 F51  0.1-  0.3-
    130618 F51  0.0   0.0     140729 F51  0.1+  0.1-    150607 F51  0.2+  0.0
    130618 F51  0.1-  0.0     140730 F51  0.0   0.0     150607 F51  0.0   0.1-
    130618 F51  0.1+  0.0     140730 F51  0.1-  0.0     150706 F51  0.0   0.1-
    130702 F51  0.0   0.0     140730 F51  0.1-  0.0     150706 F51  0.0   0.1-
    130702 F51  0.0   0.0     140730 F51  0.1-  0.1+    150706 F51  0.0   0.0
    130702 F51  0.1+  0.0     140817 F51  0.1+  0.0     150707 F51  0.0   0.1+
    130702 F51  0.1+  0.0     140817 F51  0.1-  0.2-    150707 F51  0.1-  0.0
    140523 F51  0.0   0.0     140817 F51  0.3-  0.1+    150707 F51  0.0   0.1+
    140523 F51  0.0   0.1-    140818 F51  0.1-  0.0     150707 F51  0.0   0.0
    140523 F51  0.0   0.1-    140818 F51  0.2+  0.1+
    140523 F51  0.0   0.0     140818 F51  0.0   0.0
    
    Ephemeris:
    2014 KZ101               a,e,i = 124.63, 0.73, 19                q = 33.639
    Date    TT    R. A. (2000) Decl.     Delta      r     Elong.  Phase     V
    2016 06 17    16 53 14.2 -03 13 32  32.9133 33.8479   156.6     0.7    21.6
    ...
    2016 07 02    16 51 58.7 -03 14 22  33.0019 33.8521   146.3     1.0    21.6
    ...
    2016 07 10    16 51 23.0 -03 15 45  33.0719 33.8544   139.8     1.1    21.6
    ...
    2016 07 16    16 50 59.0 -03 17 12  33.1337 33.8561   134.7     1.2    21.6
    2016 07 17    16 50 55.3 -03 17 29  33.1447 33.8564   133.8     1.2    21.6
    2016 07 18    16 50 51.7 -03 17 46  33.1560 33.8567   133.0     1.3    21.6
    ...
    2016 07 24    16 50 31.5 -03 19 40  33.2274 33.8584   127.7     1.4    21.6
    ...
    2016 08 01    16 50 09.6 -03 22 42  33.3324 33.8607   120.6     1.5    21.7
    ...
    2016 08 16    16 49 46.0 -03 29 41  33.5532 33.8650   107.1     1.6    21.7
    
    A. U. Tomatic                (C) Copyright 2016 MPC           M.P.E.C. 2016-O220
    

    Read MPEC 2016-O219 Read MPEC 2016-O221


    MPEC number:

    Enter an MPEC number in one of the following forms:

    • 1997-B01 (the full form)
    • J97B01 (the packed version of the full form)
    • B01 (the abbreviated form)